sat.trackr.live / text

‹ back to catalog

STARLINK-31876

NORAD 59938 · 2024-106S

PAYLOAD ACTIVE UNKNOWN

§ Identity

Operator
Country
US
Launch date
2024-06-01
Launch site
AFETR
Launch vehicle
Mass (kg)
RCS (m²)

Purposes: comms

External: N2YO · Heavens-Above · Gunter

§ Orbital elements

Epoch: 2026-09-21T10:56:07.931040Z

Period
94.27 min
Inclination
43.0032°
Eccentricity
0.0001611
Mean motion
15.27571227 rev/d
Perigee alt
482.0 km
Apogee alt
484.2 km
Semi-major
6,861.2 km
B*
4.4086e-5
RAAN
306.8566°
Arg perigee
257.5505°
Mean anomaly
102.5166°
Rev number
13,047

§ Raw data

STARLINK-318761 59938U 24106S   26264.45564735  .00000951  00000+0  44086-4 0  99962 59938  43.0032 306.8566 0001611 257.5505 102.5166 15.27571227130475

JSON: /api/v1/satellites/59938 · /tle

For live sub-satellite position, see the globe view (requires WebGL).

§ Visibility from observer

Set your observer location to see the next 7 days of passes ≥ 10°. The values pass through the URL so the page stays shareable.

No JS? Fill the form by hand. The geolocation button needs JavaScript.